SARAL (39086 NORAD) Tracking and Keplerian Element Data

This shows tracking and keplerian element data for the satellite.

Feedback or suggestion? Click here.




ElementValue
Catalog39086
NameSARAL
Epoch Orbit44880
Epoch Day270.19016964
Epoch Year2021
RAAN94.7246
Inclination98.5478
Eccentricity9.17E-05
Argument of Perigee37.5151
Mean Anonmoly322.6097
Mean Motion14.32061638
Decay Rate-4E-08
L11 39086U 13009A 21270.19016964 -.00000004 00000-0 14679-4 0 9993
L22 39086 98.5478 94.7246 0000917 37.5151 322.6097 14.32061638448807

Live tracking and technical data element details for SARAL (NORAD 39086). SARAL can be tracked NOW for your location showing map with azimuth and elevation plus other details from your city location.

Track the satellite on the map from your city or location and see movement details for azimuth, elevation, latitude, longitude, range, height, and movement on the map or in text.







IsCatalogInMostPopularTable: catalog: 39086, numindb: 530
Update: records affected: 1



GetName: 39086 SARAL

Hit Count: updated at: Tue, 28 Sep 2021 17:29:01 GMT